TimeCST,TemperatureF,Dew PointF,Humidity,Sea Level PressureIn,VisibilityMPH,Wind Direction,Wind SpeedMPH,Gust SpeedMPH,PrecipitationIn,Events,Conditions,WindDirDegrees,DateUTC
12:15 AM,-0.6,-6.0,78,30.24,10.0,Calm,Calm,-,N/A,,Clear,0,2014-01-07 06:15:00
12:35 AM,1.0,-6.7,70,30.23,10.0,Calm,Calm,-,N/A,,Clear,0,2014-01-07 06:35:00
12:55 AM,-0.4,-6.3,76,30.21,10.0,Calm,Calm,-,N/A,,Clear,0,2014-01-07 06:55:00
1:15 AM,-1.8,-6.3,81,30.21,10.0,Calm,Calm,-,N/A,,Clear,0,2014-01-07 07:15:00
1:35 AM,-2.2,-7.1,80,30.20,10.0,Calm,Calm,-,N/A,,Clear,0,2014-01-07 07:35:00
1:55 AM,-2.6,-6.9,82,30.19,10.0,SE,3.5,-,N/A,,Clear,130,2014-01-07 07:55:00
2:15 AM,-2.4,-6.7,82,30.19,10.0,SSE,3.5,-,N/A,,Clear,150,2014-01-07 08:15:00
2:35 AM,-2.2,-6.9,80,30.17,10.0,SE,3.5,-,N/A,,Clear,130,2014-01-07 08:35:00
2:55 AM,-0.6,-6.7,75,30.17,10.0,SE,3.5,-,N/A,,Clear,130,2014-01-07 08:55:00
3:15 AM,-0.0,-6.3,75,30.15,10.0,SE,4.6,-,N/A,,Clear,130,2014-01-07 09:15:00
3:35 AM,0.5,-5.6,75,30.14,10.0,ESE,4.6,-,N/A,,Clear,110,2014-01-07 09:35:00
3:55 AM,0.1,-5.8,76,30.13,10.0,East,3.5,-,N/A,,Clear,100,2014-01-07 09:55:00
4:15 AM,0.5,-5.4,76,30.12,10.0,SE,5.8,-,N/A,,Clear,130,2014-01-07 10:15:00
4:35 AM,0.5,-5.1,77,30.11,10.0,ESE,3.5,-,N/A,,Clear,110,2014-01-07 10:35:00
4:55 AM,0.7,-4.9,77,30.09,10.0,SE,6.9,-,N/A,,Clear,130,2014-01-07 10:55:00
5:15 AM,2.1,-4.0,76,30.08,10.0,SE,5.8,-,N/A,,Clear,130,2014-01-07 11:15:00
5:35 AM,4.1,-2.7,73,30.07,10.0,SE,6.9,-,N/A,,Scattered Clouds,140,2014-01-07 11:35:00
5:55 AM,4.8,-1.7,75,30.06,10.0,SE,5.8,-,N/A,,Clear,130,2014-01-07 11:55:00
6:15 AM,5.9,-0.8,74,30.05,10.0,SE,6.9,-,N/A,,Scattered Clouds,140,2014-01-07 12:15:00
6:35 AM,7.2,0.3,74,30.05,10.0,SSE,5.8,-,N/A,,Scattered Clouds,150,2014-01-07 12:35:00
6:55 AM,7.7,1.2,75,30.06,10.0,SSE,4.6,-,N/A,,Scattered Clouds,160,2014-01-07 12:55:00
7:15 AM,6.8,0.7,76,30.05,10.0,SE,3.5,-,N/A,,Scattered Clouds,130,2014-01-07 13:15:00
7:35 AM,8.6,2.5,76,30.05,10.0,Calm,Calm,-,N/A,,Clear,0,2014-01-07 13:35:00
7:55 AM,8.2,2.3,77,30.04,10.0,SSE,5.8,-,N/A,,Clear,150,2014-01-07 13:55:00
8:15 AM,7.5,2.3,79,30.04,10.0,South,6.9,-,N/A,,Clear,170,2014-01-07 14:15:00
8:35 AM,8.1,2.8,79,30.02,10.0,SSE,8.1,-,N/A,,Clear,160,2014-01-07 14:35:00
8:55 AM,9.3,3.6,77,30.04,10.0,South,5.8,-,N/A,,Clear,170,2014-01-07 14:55:00
9:15 AM,10.6,4.1,75,30.05,10.0,South,5.8,-,N/A,,Clear,190,2014-01-07 15:15:00
9:35 AM,12.0,5.4,75,30.05,10.0,South,4.6,-,N/A,,Clear,190,2014-01-07 15:35:00
9:55 AM,12.7,5.5,73,30.05,10.0,SSW,4.6,-,N/A,,Clear,210,2014-01-07 15:55:00
10:15 AM,13.6,6.1,72,30.06,10.0,SSW,4.6,-,N/A,,Clear,210,2014-01-07 16:15:00
10:35 AM,15.1,6.6,69,30.06,10.0,SW,3.5,-,N/A,,Clear,230,2014-01-07 16:35:00
10:55 AM,16.3,6.8,66,30.06,10.0,Calm,Calm,-,N/A,,Clear,0,2014-01-07 16:55:00
11:15 AM,18.1,7.7,64,30.06,10.0,NW,3.5,-,N/A,,Clear,310,2014-01-07 17:15:00
11:35 AM,19.0,8.4,63,30.05,10.0,West,3.5,-,N/A,,Clear,280,2014-01-07 17:35:00
11:55 AM,19.4,8.4,62,30.05,10.0,Calm,Calm,-,N/A,,Clear,0,2014-01-07 17:55:00
12:15 PM,20.5,9.3,62,30.04,10.0,Calm,Calm,-,N/A,,Clear,0,2014-01-07 18:15:00
12:35 PM,21.6,9.9,61,30.03,10.0,NW,3.5,-,N/A,,Clear,320,2014-01-07 18:35:00
12:55 PM,22.6,10.8,60,30.04,10.0,Calm,Calm,-,N/A,,Clear,0,2014-01-07 18:55:00
1:15 PM,23.9,11.3,59,30.04,10.0,North,4.6,-,N/A,,Clear,350,2014-01-07 19:15:00
1:35 PM,24.4,11.7,58,30.04,10.0,NNW,5.8,-,N/A,,Clear,330,2014-01-07 19:35:00
1:55 PM,24.8,11.7,57,30.04,10.0,North,5.8,-,N/A,,Clear,350,2014-01-07 19:55:00
2:15 PM,25.7,12.2,57,30.06,10.0,NNW,3.5,-,N/A,,Clear,340,2014-01-07 20:15:00
2:35 PM,25.5,12.0,57,30.07,10.0,North,5.8,-,N/A,,Clear,360,2014-01-07 20:35:00
2:55 PM,25.9,12.0,56,30.07,10.0,North,4.6,-,N/A,,Clear,350,2014-01-07 20:55:00
3:15 PM,26.4,12.7,56,30.08,10.0,NNW,3.5,-,N/A,,Clear,340,2014-01-07 21:15:00
3:35 PM,26.2,12.2,55,30.08,10.0,NNW,5.8,-,N/A,,Clear,340,2014-01-07 21:35:00
3:55 PM,24.8,12.2,59,30.09,10.0,North,4.6,-,N/A,,Clear,350,2014-01-07 21:55:00
4:15 PM,25.3,12.4,58,30.11,10.0,North,5.8,-,N/A,,Scattered Clouds,360,2014-01-07 22:15:00
4:35 PM,23.7,12.2,61,30.11,10.0,Calm,Calm,-,N/A,,Scattered Clouds,0,2014-01-07 22:35:00
4:55 PM,23.0,12.0,63,30.11,10.0,North,5.8,-,N/A,,Clear,360,2014-01-07 22:55:00
5:15 PM,22.1,12.0,65,30.11,10.0,NNE,4.6,-,N/A,,Clear,20,2014-01-07 23:15:00
5:35 PM,22.1,11.8,65,30.12,10.0,North,3.5,-,N/A,,Clear,10,2014-01-07 23:35:00
5:55 PM,21.4,11.5,66,30.13,10.0,Calm,Calm,-,N/A,,Clear,0,2014-01-07 23:55:00
6:15 PM,21.2,11.3,66,30.14,10.0,Calm,Calm,-,N/A,,Clear,0,2014-01-08 00:15:00
6:35 PM,20.5,11.5,68,30.14,10.0,NE,5.8,-,N/A,,Clear,50,2014-01-08 00:35:00
6:55 PM,19.6,10.8,69,30.15,10.0,NE,5.8,-,N/A,,Clear,40,2014-01-08 00:55:00
7:15 PM,18.3,9.9,70,30.16,10.0,NE,5.8,-,N/A,,Clear,40,2014-01-08 01:15:00
7:35 PM,17.8,9.3,69,30.17,10.0,NNE,3.5,-,N/A,,Clear,30,2014-01-08 01:35:00
7:55 PM,17.6,9.5,71,30.18,10.0,Calm,Calm,-,N/A,,Clear,0,2014-01-08 01:55:00
8:15 PM,18.0,9.5,70,30.19,10.0,Calm,Calm,-,N/A,,Clear,0,2014-01-08 02:15:00
8:35 PM,17.8,10.0,72,30.19,10.0,Calm,Calm,-,N/A,,Clear,0,2014-01-08 02:35:00
8:55 PM,17.8,10.2,72,30.18,10.0,NNE,3.5,-,N/A,,Clear,20,2014-01-08 02:55:00
9:15 PM,18.0,9.3,69,30.19,10.0,North,3.5,-,N/A,,Clear,10,2014-01-08 03:15:00
9:35 PM,18.0,9.1,68,30.20,10.0,NE,3.5,-,N/A,,Clear,40,2014-01-08 03:35:00
9:55 PM,18.0,8.8,67,30.21,10.0,Calm,Calm,-,N/A,,Clear,0,2014-01-08 03:55:00
10:15 PM,18.0,8.6,67,30.22,10.0,Calm,Calm,-,N/A,,Clear,0,2014-01-08 04:15:00
10:35 PM,18.0,8.6,67,30.22,10.0,Calm,Calm,-,N/A,,Clear,0,2014-01-08 04:35:00
10:55 PM,18.1,9.1,68,30.23,10.0,Calm,Calm,-,N/A,,Clear,0,2014-01-08 04:55:00
11:15 PM,18.1,9.3,68,30.23,10.0,Calm,Calm,-,N/A,,Clear,0,2014-01-08 05:15:00
11:35 PM,18.1,10.0,71,30.23,10.0,Calm,Calm,-,N/A,,Clear,0,2014-01-08 05:35:00
11:55 PM,18.0,9.7,70,30.23,10.0,NNW,3.5,-,N/A,,Clear,340,2014-01-08 05:55:00